User: anonymous   Login
Location: Newark
(55.5030°N, 22.7200°E)
Time: 18:47:55
(UTC+00:00)
Language:

Courier 1B Rocket - Orbit

View from above orbital plane
View from above orbital plane
View from above satellite
View from above satellite

Ground track
Ground track

The orbit data is extracted from the following two-line orbital elements,

1    59U 60013B   20157.81185051 +.00000118 +00000-0 +36470-4 0  9992
2    59 028.2489 278.0059 0189086 188.4789 171.2533 13.52976257945026
Epoch (UTC): 05 June 2020 19:29:03
Eccentricity: 0.0189086
inclination: 28.2489°
perigee height: 920 km
apogee height: 1202 km
right ascension of ascending node: 278.0059°
argument of perigee: 188.4789°
revolutions per day: 13.52976257
mean anomaly at epoch: 171.2533°
orbit number at epoch: 94502

The dashed part of the orbit path shows where the satellite is in the earth's shadow,  

DLR